Regional Weather Roundup
Issued by NWS

Current Version | Previous Version | Text Only | Print | Product List | Glossary On
Versions: 1 2 3 4 5 6 7 8 9 10 11 12 13 14 15 16 17 18 19 20 21 22 23 24 25 26 27 28 29 30 31 32 33 34 35 36 37 38 39 40 41 42 43 44 45 46 47 48 49 50
513
ASUS45 KABQ 271601
RWRNM
NEW MEXICO REGIONAL WEATHER ROUNDUP
NATIONAL WEATHER SERVICE ALBUQUERQUE NM
1000 AM MDT SAT MAY 27 2017

NOTE: "FAIR" MEANS FEW OR NO CLOUDS BELOW 12,000 FEET AGL WITH NO
       SIGNIFICANT WEATHER OR OBSTRUCTIONS TO VISION.

      THIS PRODUCT IS RELEASED AS TWO VERSIONS.  ONE VERSION NEAR
      THE TOP OF THE HOUR CONTAINING PRELIMINARY DATA FROM ALBUQUERQUE
      AND OTHER STATIONS.  A FINAL VERSION WITH ADDITIONAL DATA IS
      ISSUED ABOUT 10 MINUTES AFTER THE HOUR.

NMZ501-503-504-510>518-271700-
NORTHWEST PLATEAU/NORTHCENTRAL MOUNTAINS

CITY           SKY/WX    TMP DP  RH WIND       PRES   REMARKS
FARMINGTON     FAIR      66  28  24 W14       30.08R
LOS ALAMOS     FAIR      64  19  17 NE6       30.15S
SANTA FE       FAIR      69  21  16 SW18      30.10F
TAOS           FAIR      63  21  20 SW9       30.14F
ANGEL FIRE     FAIR      55  23  28 SW13G23   30.19S

$$
NMZ402-403-502-505>509-271700-
WESTCENTRAL MOUNTAINS/SOUTHWEST MOUNTAINS

CITY           SKY/WX    TMP DP  RH WIND       PRES   REMARKS
GALLUP         FAIR      63  25  23 W7        30.17S
GRANTS         FAIR      65  19  16 NW3       30.18S
SILVER CITY    FAIR      71  24  17 W14       30.16S

$$
NMZ407-409-411-412-271700-
SOUTHERN DESERTS

CITY           SKY/WX    TMP DP  RH WIND       PRES   REMARKS
DEMING         FAIR      76  27  16 W10       30.11R
LAS CRUCES     FAIR      77  23  13 W28G33    30.11R
HOLLOMAN AFB   FAIR      80  27  14 W17G24    30.10R
T OR C         FAIR      76  22  13 SW9       30.09S

$$
NMZ519>523-271700-
CENTRAL VALLEYS/CENTRAL HIGHLANDS

CITY           SKY/WX    TMP DP  RH WIND       PRES   REMARKS
ALBUQUERQUE    FAIR      69  17  13 SW10      30.10F
DOUBLE EAGLE   MOSUNNY   70  23  17 SW13      30.12F
MORIARTY ARPT  FAIR      71  17  13 W20G28    30.13S
CLINES CORNERS FAIR      65  15  14 W23G31    30.14S
BELEN          FAIR      73  17  12 NW13G23   30.11S
SOCORRO        FAIR      73  22  14 CALM      30.09S

$$
NMZ524>526-539-540-271700-
SOUTHCENTRAL MOUNTAINS

CITY           SKY/WX    TMP DP  RH WIND       PRES   REMARKS
RUIDOSO        NOT AVBL

$$
NMZ527>531-271700-
NORTHEAST HIGHLANDS/NORTHEAST PLAINS

CITY           SKY/WX    TMP DP  RH WIND       PRES   REMARKS
LAS VEGAS      FAIR      68  14  12 S8        30.09S
RATON          FAIR      65  40  39 NE8       30.04S
CLAYTON        FAIR      64  49  57 N24G32    30.00S

$$
NMZ532>537-271700-
EASTCENTRAL PLAINS

CITY           SKY/WX    TMP DP  RH WIND       PRES   REMARKS
SANTA ROSA     FAIR      75  20  12 W10G21    30.00F
TUCUMCARI      FAIR      79  25  13 W7        29.94S
CANNON AFB     FAIR      79  20  11 NW20      30.00S
CLOVIS AIRPORT FAIR      82  25  12 NW24G32   29.98S

$$
NMZ028-029-538-271700-
SOUTHEAST PLAINS

CITY           SKY/WX    TMP DP  RH WIND       PRES   REMARKS
ROSWELL        FAIR      82  25  12 CALM      29.98S
ARTESIA        FAIR      86  28  12 W15       29.99S
CARLSBAD       FAIR      87  27  11 W22G35    29.98F
HOBBS          SUNNY     86  27  11 SW17      30.00S


$$




USA.gov is the U.S. government's official web portal to all federal, state and local government web resources and services.